When you browse on this site, cookies collect data to enhance your experience and personalize the content and advertising you see.
Visit our Privacy Policy to learn more. By continuing to use the site, you agree to this use of cookies and data.
  • In Romania
  • List of Countries
  • For 7 days
  • Water Temperature
  • Satellite Maps
  • Weather Map
  • Weather Widgets
  • user-avatar
    Login

    Hourly Weather Asciano

    Today, 16 July, Tuesday

    Time Temperature Precipitation Wind Pressure Humidity
    00:00 +16°C° 0 mm 3 mps 737 mmHg 88%
    01:00 +16°C° 0 mm 3 mps 737 mmHg 88%
    02:00 +16°C° 0 mm 3 mps 737 mmHg 88%
    03:00 +16°C° 0 mm 2 mps 737 mmHg 87%
    04:00 +16°C° 0 mm 2 mps 737 mmHg 87%
    05:00 +17°C° 0 mm 3 mps 737 mmHg 82%
    06:00 +18°C° 0 mm 3 mps 737 mmHg 78%
    07:00 +19°C° 0 mm 4 mps 738 mmHg 73%
    08:00 +21°C° 0 mm 4 mps 738 mmHg 63%
    09:00 +25°C° 0 mm 5 mps 739 mmHg 53%
    10:00 +27°C° 0 mm 6 mps 739 mmHg 43%
    11:00 +27°C° 0 mm 6 mps 739 mmHg 40%
    12:00 +28°C° 0 mm 6 mps 739 mmHg 37%
    13:00 +29°C° 0 mm 6 mps 739 mmHg 34%
    14:00 +29°C° 0 mm 6 mps 739 mmHg 34%
    15:00 +29°C° 0 mm 5 mps 739 mmHg 33%
    16:00 +29°C° 0 mm 5 mps 739 mmHg 33%
    17:00 +27°C° 0 mm 4 mps 739 mmHg 38%
    18:00 +26°C° 0 mm 3 mps 739 mmHg 44%
    19:00 +24°C° 0 mm 3 mps 739 mmHg 50%
    20:00 +21°C° 0 mm 2 mps 739 mmHg 55%
    21:00 +19°C° 0 mm 2 mps 739 mmHg 59%
    22:00 +19°C° 0 mm 1 mps 740 mmHg 64%
    23:00 +18°C° 0 mm 1 mps 740 mmHg 66%

    Tomorrow, 17 July, Wednesday

    Time Temperature Precipitation Wind Pressure Humidity
    00:00 +18°C° 0 mm 1 mps 739 mmHg 67%
    01:00 +16°C° 0 mm 1 mps 739 mmHg 69%
    02:00 +16°C° 0 mm 1 mps 739 mmHg 69%
    03:00 +15°C° 0 mm 1 mps 739 mmHg 70%
    04:00 +15°C° 0 mm 1 mps 739 mmHg 70%
    05:00 +18°C° 0 mm 1 mps 739 mmHg 65%
    06:00 +19°C° 0 mm 1 mps 739 mmHg 60%
    07:00 +21°C° 0 mm 1 mps 740 mmHg 55%
    08:00 +24°C° 0 mm 1 mps 740 mmHg 49%
    09:00 +26°C° 0 mm 1 mps 740 mmHg 42%
    10:00 +29°C° 0 mm 2 mps 740 mmHg 36%
    11:00 +30°C° 0 mm 2 mps 740 mmHg 33%
    12:00 +31°C° 0 mm 1 mps 740 mmHg 30%
    13:00 +33°C° 0 mm 1 mps 740 mmHg 27%
    14:00 +33°C° 0 mm 1 mps 740 mmHg 27%
    15:00 +33°C° 0 mm 1 mps 739 mmHg 27%
    16:00 +33°C° 0 mm 1 mps 739 mmHg 27%
    17:00 +30°C° 0 mm 1 mps 739 mmHg 37%
    18:00 +28°C° 0 mm 2 mps 738 mmHg 44%
    19:00 +26°C° 0 mm 3 mps 738 mmHg 51%
    20:00 +24°C° 0 mm 2 mps 738 mmHg 56%
    21:00 +23°C° 0 mm 1 mps 738 mmHg 61%
    22:00 +21°C° 0 mm 1 mps 738 mmHg 66%
    23:00 +18°C° 0 mm 0 mps 738 mmHg 68%

    Day after tomorrow, 18 July, Thursday

    Time Temperature Precipitation Wind Pressure Humidity
    00:00 +18°C° 0 mm 0 mps 738 mmHg 70%
    01:00 +18°C° 0 mm 0 mps 738 mmHg 72%
    02:00 +17°C° 0 mm 0 mps 737 mmHg 73%
    03:00 +17°C° 0 mm 0 mps 737 mmHg 75%
    04:00 +16°C° 0 mm 0 mps 737 mmHg 77%
    05:00 +18°C° 0 mm 0 mps 737 mmHg 72%
    06:00 +19°C° 0 mm 0 mps 737 mmHg 67%
    07:00 +21°C° 0 mm 0 mps 737 mmHg 62%
    08:00 +23°C° 0 mm 0 mps 738 mmHg 55%
    09:00 +26°C° 0 mm 0 mps 738 mmHg 48%
    10:00 +28°C° 0 mm 0 mps 739 mmHg 41%
    11:00 +31°C° 0 mm 1 mps 739 mmHg 38%
    12:00 +32°C° 0 mm 1 mps 738 mmHg 34%
    13:00 +32°C° 0 mm 2 mps 738 mmHg 31%
    14:00 +31°C° 0.1 mm 2 mps 738 mmHg 37%
    15:00 +30°C° 0.1 mm 3 mps 738 mmHg 43%
    16:00 +29°C° 0.1 mm 3 mps 738 mmHg 49%
    17:00 +28°C° 0 mm 2 mps 738 mmHg 53%
    18:00 +27°C° 0 mm 1 mps 738 mmHg 57%
    19:00 +26°C° 0 mm 1 mps 738 mmHg 62%
    20:00 +24°C° 0 mm 1 mps 738 mmHg 68%
    21:00 +22°C° 0 mm 1 mps 738 mmHg 74%
    22:00 +21°C° 0 mm 1 mps 739 mmHg 81%
    23:00 +20°C° 0 mm 1 mps 739 mmHg 85%

    19 July, Friday

    Time Temperature Precipitation Wind Pressure Humidity
    00:00 +18°C° 0 mm 0 mps 739 mmHg 88%
    01:00 +18°C° 0 mm 0 mps 739 mmHg 92%
    02:00 +17°C° 0 mm 0 mps 739 mmHg 93%
    03:00 +19°C° 0 mm 1 mps 739 mmHg 93%
    04:00 +19°C° 0 mm 1 mps 739 mmHg 94%
    05:00 +20°C° 0 mm 1 mps 739 mmHg 90%
    06:00 +21°C° 0 mm 1 mps 739 mmHg 86%
    07:00 +22°C° 0 mm 1 mps 739 mmHg 81%
    08:00 +24°C° 0 mm 1 mps 740 mmHg 70%
    09:00 +27°C° 0 mm 1 mps 740 mmHg 59%
    10:00 +29°C° 0 mm 1 mps 741 mmHg 48%
    11:00 +30°C° 0 mm 1 mps 740 mmHg 43%
    12:00 +32°C° 0 mm 1 mps 740 mmHg 39%
    13:00 +33°C° 0 mm 1 mps 740 mmHg 34%
    14:00 +34°C° 0 mm 2 mps 740 mmHg 36%
    15:00 +33°C° 0 mm 3 mps 740 mmHg 39%
    16:00 +31°C° 0 mm 3 mps 740 mmHg 41%
    17:00 +30°C° 0 mm 3 mps 740 mmHg 46%
    18:00 +29°C° 0 mm 2 mps 741 mmHg 50%
    19:00 +27°C° 0 mm 2 mps 741 mmHg 55%
    20:00 +26°C° 0 mm 1 mps 741 mmHg 62%
    21:00 +24°C° 0 mm 1 mps 741 mmHg 68%
    22:00 +22°C° 0 mm 1 mps 741 mmHg 75%
    23:00 +19°C° 0 mm 0 mps 741 mmHg 78%

    20 July, Saturday

    Time Temperature Precipitation Wind Pressure Humidity
    00:00 +19°C° 0 mm 0 mps 741 mmHg 81%
    01:00 +18°C° 0 mm 0 mps 741 mmHg 83%
    02:00 +18°C° 0 mm 0 mps 741 mmHg 84%
    03:00 +18°C° 0 mm 0 mps 741 mmHg 85%
    04:00 +17°C° 0 mm 0 mps 741 mmHg 86%
    05:00 +19°C° 0 mm 0 mps 742 mmHg 80%
    06:00 +20°C° 0 mm 0 mps 742 mmHg 74%
    07:00 +22°C° 0 mm 0 mps 742 mmHg 68%
    08:00 +26°C° 0 mm 1 mps 743 mmHg 58%
    09:00 +29°C° 0 mm 1 mps 743 mmHg 48%
    10:00 +31°C° 0 mm 1 mps 743 mmHg 38%
    11:00 +32°C° 0 mm 1 mps 743 mmHg 34%
    12:00 +34°C° 0 mm 2 mps 743 mmHg 31%
    13:00 +36°C° 0 mm 2 mps 743 mmHg 27%
    14:00 +35°C° 0 mm 3 mps 743 mmHg 28%
    15:00 +35°C° 0 mm 3 mps 743 mmHg 30%
    16:00 +35°C° 0 mm 4 mps 743 mmHg 31%
    17:00 +33°C° 0 mm 3 mps 743 mmHg 37%
    18:00 +30°C° 0 mm 3 mps 742 mmHg 43%
    19:00 +28°C° 0 mm 3 mps 742 mmHg 49%
    20:00 +26°C° 0 mm 2 mps 743 mmHg 55%
    21:00 +24°C° 0 mm 1 mps 743 mmHg 62%
    22:00 +22°C° 0 mm 1 mps 743 mmHg 68%
    23:00 +21°C° 0 mm 1 mps 743 mmHg 71%

    21 July, Sunday

    Time Temperature Precipitation Wind Pressure Humidity
    00:00 +18°C° 0 mm 0 mps 742 mmHg 75%
    01:00 +18°C° 0 mm 0 mps 742 mmHg 78%
    02:00 +17°C° 0 mm 0 mps 742 mmHg 78%
    03:00 +17°C° 0 mm 0 mps 742 mmHg 79%
    04:00 +17°C° 0 mm 0 mps 742 mmHg 79%
    05:00 +18°C° 0 mm 0 mps 742 mmHg 74%
    06:00 +20°C° 0 mm 0 mps 743 mmHg 68%
    07:00 +22°C° 0 mm 0 mps 743 mmHg 62%
    08:00 +24°C° 0 mm 0 mps 743 mmHg 55%
    09:00 +27°C° 0 mm 0 mps 744 mmHg 48%
    10:00 +29°C° 0 mm 0 mps 744 mmHg 41%
    11:00 +32°C° 0 mm 1 mps 744 mmHg 40%
    12:00 +33°C° 0 mm 1 mps 744 mmHg 38%
    13:00 +34°C° 0 mm 1 mps 744 mmHg 36%
    14:00 +35°C° 0 mm 2 mps 744 mmHg 38%
    15:00 +34°C° 0 mm 2 mps 743 mmHg 40%
    16:00 +34°C° 0 mm 3 mps 743 mmHg 42%
    17:00 +32°C° 0 mm 2 mps 743 mmHg 48%
    18:00 +30°C° 0 mm 2 mps 743 mmHg 53%
    19:00 +29°C° 0 mm 1 mps 743 mmHg 59%
    20:00 +27°C° 0.2 mm 1 mps 743 mmHg 66%
    21:00 +25°C° 0.2 mm 1 mps 743 mmHg 74%
    22:00 +21°C° 0.2 mm 0 mps 743 mmHg 81%
    23:00 +21°C° 0 mm 0 mps 743 mmHg 83%
    Show more